Location: Stanford
(52.2833°N, 2.4333°W)
Time: 02:43:01
(UTC+00:00)

YAOGAN 1 - Pass Details

Date: 22 January 2021
Orbit: 618 x 620 km, 97.9° (Epoch: 24 February)

Event Time Altitude Azimuth Distance (km) Brightness Sun altitude
Rises 19:04:33 0° 177° (S) 2,887 6.0 -21.8°
Reaches altitude 10° 19:06:47 10° 183° (S) 1,986 5.2 -22.2°
Maximum altitude 19:11:00 52° 260° (W) 775 3.3 -22.8°
Drops below altitude 10° 19:15:16 10° 337° (NNW) 2,001 5.4 -23.5°
Sets 19:17:31 0° 343° (NNW) 2,912 6.2 -23.8°
